• MPC Preparation (Info)

  • MPEC 2023-P29 : 2019 CC5

    The following Minor Planet Electronic Circular may be linked-to from your own Web pages, but must not otherwise be redistributed electronically.

    A form allowing access to any MPEC is at the bottom of this page.


    Read MPEC 2023-P28 Read MPEC 2023-P30


    M.P.E.C. 2023-P29                                Issued 2023 August 7, 14:06 UT
    
         The Minor Planet Electronic Circulars contain information on unusual
             minor planets, routine data on comets and natural satellites,
             and occasional editorial announcements.  They are published
        on behalf of Division F of the International Astronomical Union by the
              Minor Planet Center, Smithsonian Astrophysical Observatory,
                              Cambridge, MA 02138, U.S.A.
    			  
                 Prepared using the Tamkin Foundation Computer Network
    
                                  MPC@CFA.HARVARD.EDU
                URL https://www.minorplanetcenter.net/    ISSN 1523-6714
    
                                    2019 CC5                                 
    
    
                               Revision to MPEC 2019-C140                           
    
    Additional Observations:
         K19C05C  C2014 02 25.62592812 38 53.202+14 26 30.36         20.69GVEP029F51
         K19C05C  C2014 02 27.56492112 32 05.303+15 19 06.23         20.43GVEP029F51
         K19C05C  C2014 02 27.57606612 32 02.883+15 19 23.14         20.07GVEP029F51
         K19C05C 0C2023 07 14.58095419 47 02.925-16 27 11.65         24.11GVEP029T14
         K19C05C 0C2023 07 15.57924219 45 18.132-16 34 38.57         24.01GVEP029T14
    
    Observer details:
    F51 Pan-STARRS 1, Haleakala.  Observers J. Bulger, K. Chambers, T. Lowe, P.
        Minguez, A. Schultz, I. Smith.  Measurers S. Chastel, J. Fairlamb, M.
        Huber, Y. Ramanjooloo, R. Wainscoat, R. Weryk.  1.8-m Ritchey-Chretien +
        CCD.
    T14 Canada-France-Hawaii Telescope, Maunakea.  Observer A. Acohido.  Measurer
        D. J. Tholen.  3.6-m f/4.1 reflector + 1024 x 2306 pixels Megacam.
    
    First and last observations above in comparison with prediction:
    Residuals in seconds of arc (or two decimals in degrees), reference and Delta-T
    140225 F51 0.14- 0.10-    230715 T14 0.04- 0.00-    MPO750185   +0.08 days
    
    Orbital elements:
    2019 CC5                                                 Earth MOID = 0.0173 AU
    Epoch 2023 Sept. 13.0 TT = JDT 2460200.5                Veres                   
    M 320.17296              (2000.0)            P               Q                  
    n   0.39360997     Peri.  295.55414     +0.38825628     -0.91632374             
    a   1.8439904      Node   131.23946     +0.88537313     +0.34138815             
    e   0.6054465      Incl.    7.48994     +0.25567847     +0.20929627             
    P   2.50           H   22.03          G   0.15           U   0                  
    Residuals in seconds of arc
    140225 F51  0.2-  0.1+    190213 L01  0.1-  0.1+    190304 691  0.3-  0.1+
    140227 F51  0.1+  0.2+    190213 L01  0.0   0.0     190306 I52  0.1+  0.0
    140227 F51  0.1+  0.2+    190215 K61  0.2+  0.1-    190306 I52  0.0   0.0
    190208 F52  0.1-  0.1+    190215 K61  0.2+  0.1-    190306 I52  0.3+  0.2+
    190208 F52  0.0   0.0     190215 K61  0.1+  0.3-    190306 I52  0.0   0.1+
    190209 703  0.4+  0.2-    190225 H21  0.6-  0.3-    190307 G96  0.6-  0.1+
    190209 703  0.9+  0.9-    190225 H21  0.4-  0.6-    190307 G96  0.2-  0.1-
    190209 703  0.5-  0.6+    190225 H21  0.0   0.6-    190307 G96  0.5+  0.4-
    190209 I52  0.2-  0.1-    190226 I52  0.5+  0.1-    190315 695  0.0   0.1-
    190209 I52  0.0   0.0     190226 I52  0.2+  0.1-    190315 695  0.2+  0.1-
    190209 I52  0.1+  0.2-    190226 I52  0.0   0.3+    190315 695  0.1-  0.0
    190209 I52  0.0   0.0     190226 I52  0.2+  0.4+    190325 291  0.3+  0.0
    190211 G96  0.0   0.2+    190226 G96  0.0   0.3+    190325 291  0.2+  0.2-
    190211 G96  0.1+  0.3+    190226 G96  0.3+  0.0     190325 291  0.2+  0.2+
    190211 G96  0.0   0.2-    190226 291  0.0   0.0     190327 H21  0.2-  0.2+
    190211 G96  0.1+  0.3-    190226 G96  0.0   0.1+    190327 H21  0.0   0.3+
    190211 K88  0.8-  0.4-    190226 291  0.3-  0.2-    190327 H21  0.0   0.2+
    190211 K88  0.3+  0.2-    190226 G96  0.2+  0.1-    190329 291  0.1+  0.1+
    190212 204  0.1+  0.1+    190228 I52  0.5-  0.3+    190329 291  0.1-  0.1+
    190212 204  0.3-  0.2+    190228 I52  0.1+  0.0     190329 291  0.1-  0.1+
    190212 204  0.1-  0.1+    190228 I52  0.1+  0.1+    190331 291  0.2-  0.0
    190212 I52  0.1-  0.3+    190303 I52  0.2-  0.2-    190331 291  0.0   0.2+
    190212 I52  0.4+  0.2-    190303 I52  0.1+  0.6-    190331 291  0.1+  0.0
    190212 I52  0.0   0.2+    190303 I52  0.1-  0.3+    230714 T14  0.0   0.0
    190212 I52  0.2-  0.1-    190303 I52  0.1+  0.7-    230715 T14  0.0   0.1-
    190213 L01  0.0   0.1-    190304 691  0.2+  0.2+
    190213 L01  0.1+  0.1+    190304 691  0.1+  0.1+
    
    Ephemeris:
    2019 CC5                 a,e,i = 1.84, 0.61, 7                   q = 0.7276
    Date    TT    R. A. (2000) Decl.     Delta      r    Elong.  Phase     V
    2023 07 08    19 57 40.3 -15 41 57   1.0426  2.0441   166.1     6.9    24.2
    ...
    2023 07 23    19 31 27.4 -17 33 42   0.9283  1.9386   171.2     4.6    23.7
    ...
    2023 07 31    19 15 31.5 -18 41 52   0.8922  1.8794   160.3    10.5    23.8
    ...
    2023 08 06    19 03 38.1 -19 33 19   0.8758  1.8337   151.9    15.1    23.9
    2023 08 07    19 01 42.2 -19 41 47   0.8739  1.8260   150.4    15.9    23.9
    2023 08 08    18 59 47.5 -19 50 12   0.8722  1.8183   149.0    16.7    23.9
    ...
    2023 08 14    18 48 54.3 -20 39 24   0.8665  1.7710   140.7    21.2    24.0
    ...
    2023 08 22    18 36 32.6 -21 40 43   0.8689  1.7062   130.1    27.0    24.1
    ...
    2023 09 06    18 22 15.5 -23 21 36   0.8922  1.5793   112.3    36.2    24.3
    
    A. U. Tomatic                (C) Copyright 2023 MPC           M.P.E.C. 2023-P29
    


    Read MPEC 2023-P28 Read MPEC 2023-P30


    MPEC number:

    Enter an MPEC number in one of the following forms:

    • 1997-B01 (the full form)
    • J97B01 (the packed version of the full form)
    • B01 (the abbreviated form)